| time (UTC) | temp C | wind direction | speed KPH | gust KPH | rain 1hr cm | rain 24hr cm | rain mn cm | humidity % | barometer mb |
| 20260503194537 | 20 | 327 | 11.3 | 20.9 | 0.00 | 0.00 | 0.00 | 57 | 1012.4 |
| 20260503193040 | 19 | 286 | 11.3 | 20.9 | 0.00 | 0.00 | 0.00 | 62 | 1012.5 |
| 20260503191543 | 19 | 321 | 9.7 | 19.3 | 0.00 | 0.00 | 0.00 | 60 | 1012.6 |
| 20260503190039 | 18 | 290 | 16.1 | 24.1 | 0.00 | 0.00 | 0.00 | 59 | 1012.6 |
| 20260503184546 | 19 | 300 | 9.7 | 20.9 | 0.00 | 0.00 | 0.00 | 62 | 1012.6 |
| 20260503183042 | 19 | 277 | 9.7 | 19.3 | 0.00 | 0.00 | 0.00 | 61 | 1012.7 |
| 20260503181550 | 20 | 279 | 12.9 | 17.7 | 0.00 | 0.00 | 0.00 | 59 | 1012.9 |
| 20260503180048 | 20 | 282 | 9.7 | 16.1 | 0.00 | 0.00 | 0.00 | 62 | 1013.1 |
| 20260503174545 | 20 | 153 | 3.2 | 6.4 | 0.00 | 0.00 | 0.00 | 64 | 1013.3 |
| 20260503173052 | 20 | 90 | 3.2 | 11.3 | 0.00 | 0.00 | 0.00 | 72 | 1013.4 |
| 20260503171537 | 20 | 198 | 0.0 | 11.3 | 0.00 | 0.00 | 0.00 | 68 | 1013.6 |
| 20260503081542 | 12 | 344 | 1.6 | 1.6 | 0.00 | 0.03 | 0.00 | 80 | 1013.7 |
| 20260503071542 | 15 | 0 | 0.0 | 3.2 | 0.00 | 0.03 | 0.00 | 72 | 1013.6 |
| 20260503054537 | 14 | 118 | 1.6 | 4.8 | 0.00 | 0.03 | 0.03 | 81 | 1013.4 |
| 20260503053039 | 15 | 104 | 3.2 | 4.8 | 0.00 | 0.03 | 0.03 | 80 | 1013.4 |
| 20260503051539 | 15 | 82 | 1.6 | 3.2 | 0.00 | 0.03 | 0.03 | 79 | 1013.6 |
| 20260503050037 | 15 | 84 | 0.0 | 1.6 | 0.00 | 0.03 | 0.03 | 78 | 1013.6 |
| 20260503044539 | 15 | 92 | 0.0 | 3.2 | 0.00 | 0.03 | 0.03 | 79 | 1013.5 |
| 20260503043037 | 15 | 126 | 0.0 | 1.6 | 0.00 | 0.03 | 0.03 | 78 | 1013.4 |
| 20260503041537 | 15 | 130 | 0.0 | 1.6 | 0.00 | 0.03 | 0.03 | 78 | 1013.2 |
| 20260503040035 | 15 | 130 | 0.0 | 1.6 | 0.00 | 0.03 | 0.03 | 78 | 1013.2 |
| 20260503034538 | 15 | 0 | 0.0 | 1.6 | 0.00 | 0.03 | 0.03 | 76 | 1013.0 |
| 20260503033040 | 16 | 0 | 0.0 | 1.6 | 0.00 | 0.03 | 0.03 | 75 | 1012.8 |
| 20260503031538 | 17 | 231 | 1.6 | 1.6 | 0.00 | 0.03 | 0.03 | 73 | 1012.8 |
| 20260503030052 | 17 | 94 | 0.0 | 1.6 | 0.00 | 0.03 | 0.03 | 72 | 1012.8 |
| 20260503024542 | 17 | 0 | 0.0 | 4.8 | 0.00 | 0.03 | 0.03 | 74 | 1012.7 |
| 20260503023037 | 18 | 114 | 0.0 | 1.6 | 0.00 | 0.03 | 0.03 | 68 | 1012.5 |
| 20260503021540 | 17 | 103 | 0.0 | 3.2 | 0.00 | 0.03 | 0.03 | 71 | 1012.6 |
| 20260503020037 | 18 | 126 | 3.2 | 4.8 | 0.00 | 0.03 | 0.03 | 67 | 1012.8 |
| 20260503014547 | 19 | 87 | 1.6 | 6.4 | 0.00 | 0.03 | 0.03 | 68 | 1013.0 |
| 20260503013034 | 20 | 234 | 3.2 | 6.4 | 0.00 | 0.03 | 0.03 | 61 | 1013.0 |
| 20260503011548 | 21 | 202 | 1.6 | 6.4 | 0.00 | 0.03 | 0.03 | 61 | 1013.2 |
| 20260503010038 | 21 | 290 | 4.8 | 11.3 | 0.00 | 0.03 | 0.03 | 53 | 1013.2 |
| 20260503004539 | 22 | 327 | 1.6 | 6.4 | 0.00 | 0.03 | 0.03 | 53 | 1013.3 |
| 20260503003046 | 22 | 239 | 1.6 | 9.7 | 0.00 | 0.03 | 0.03 | 53 | 1013.3 |
| 20260503001537 | 21 | 267 | 4.8 | 12.9 | 0.00 | 0.03 | 0.03 | 55 | 1013.5 |
| 20260503000037 | 21 | 259 | 4.8 | 14.5 | 0.00 | 0.03 | 0.03 | 57 | 1013.5 |
| 20260502234541 | 22 | 211 | 4.8 | 14.5 | 0.00 | 0.03 | 0.03 | 52 | 1013.7 |
| 20260502233039 | 22 | 311 | 3.2 | 9.7 | 0.00 | 0.03 | 0.03 | 52 | 1013.7 |
| 20260502231538 | 22 | 311 | 4.8 | 16.1 | 0.00 | 0.03 | 0.03 | 53 | 1013.7 |
| 20260502230038 | 21 | 334 | 8.0 | 19.3 | 0.00 | 0.03 | 0.03 | 56 | 1013.8 |
| 20260502224537 | 21 | 309 | 6.4 | 17.7 | 0.00 | 0.03 | 0.03 | 57 | 1014.1 |
| 20260502223037 | 21 | 290 | 11.3 | 20.9 | 0.00 | 0.03 | 0.03 | 55 | 1014.2 |
| 20260502221533 | 20 | 298 | 3.2 | 19.3 | 0.00 | 0.03 | 0.03 | 56 | 1014.4 |
| 20260502220041 | 20 | 17 | 9.7 | 20.9 | 0.00 | 0.03 | 0.03 | 61 | 1014.6 |
| 20260502214537 | 20 | 285 | 9.7 | 17.7 | 0.00 | 0.03 | 0.03 | 61 | 1014.9 |
| 20260502213042 | 19 | 292 | 8.0 | 17.7 | 0.00 | 0.03 | 0.03 | 61 | 1015.0 |
| 20260502211536 | 19 | 285 | 12.9 | 20.9 | 0.00 | 0.03 | 0.03 | 60 | 1015.2 |
| 20260502210037 | 20 | 298 | 6.4 | 19.3 | 0.00 | 0.03 | 0.03 | 56 | 1015.3 |
| 20260502204535 | 18 | 296 | 11.3 | 24.1 | 0.00 | 0.03 | 0.03 | 60 | 1015.4 |
| 20260502203055 | 18 | 290 | 17.7 | 24.1 | 0.00 | 0.03 | 0.03 | 61 | 1015.5 |
| 20260502201537 | 18 | 294 | 14.5 | 24.1 | 0.00 | 0.03 | 0.03 | 64 | 1015.6 |
| 20260502200036 | 18 | 254 | 11.3 | 20.9 | 0.00 | 0.03 | 0.03 | 66 | 1015.6 |